Time,TemperatureF,DewpointF,PressureIn,WindDirection,WindDirectionDegrees,WindSpeedMPH,WindSpeedGustMPH,Humidity,HourlyPrecipIn,Conditions,Clouds,dailyrainin,SolarRadiationWatts/m^2,SoftwareType,DateUTC
2013-02-03 00:00:00,2.0,-4.0,-100.00,SSW,209,3.0,6.0,74,0.00,,,0.01,0.000000,,2013-02-03 06:00:00,
2013-02-03 00:21:00,2.0,-4.0,-100.00,SSW,209,3.0,6.0,74,0.00,,,0.01,0.000000,,2013-02-03 06:21:00,
2013-02-03 00:32:00,2.0,-4.0,-100.00,SSW,209,3.0,6.0,74,0.00,,,0.01,0.000000,,2013-02-03 06:32:00,
2013-02-03 00:42:00,2.0,-4.0,-100.00,SSW,209,3.0,6.0,74,0.00,,,0.01,0.000000,,2013-02-03 06:42:00,
2013-02-03 00:52:00,2.0,-4.0,-100.00,SSW,209,3.0,6.0,74,0.00,,,0.01,0.000000,,2013-02-03 06:52:00,
2013-02-03 01:00:00,2.0,-4.0,-100.00,SW,218,3.0,7.0,75,0.00,,,0.01,0.000000,,2013-02-03 07:00:00,
2013-02-03 01:32:00,2.0,-4.0,-100.00,SW,218,3.0,7.0,75,0.00,,,0.01,0.000000,,2013-02-03 07:32:00,
2013-02-03 01:42:00,2.0,-4.0,-100.00,SW,218,3.0,7.0,75,0.00,,,0.01,0.000000,,2013-02-03 07:42:00,
2013-02-03 01:52:00,2.0,-4.0,-100.00,SW,218,3.0,7.0,75,0.00,,,0.01,0.000000,,2013-02-03 07:52:00,
2013-02-03 02:00:00,2.0,-4.0,-100.00,WSW,237,3.0,6.0,75,0.00,,,-99.99,0.000000,,2013-02-03 08:00:00,
2013-02-03 02:32:00,2.0,-4.0,-100.00,WSW,237,3.0,6.0,75,0.00,,,-99.99,0.000000,,2013-02-03 08:32:00,
2013-02-03 02:42:00,2.0,-4.0,-100.00,WSW,237,3.0,6.0,75,0.00,,,-99.99,0.000000,,2013-02-03 08:42:00,
2013-02-03 02:52:00,2.0,-4.0,-100.00,WSW,237,3.0,6.0,75,0.00,,,-99.99,0.000000,,2013-02-03 08:52:00,
2013-02-03 03:00:00,3.0,-3.0,-100.00,West,259,4.0,10.0,76,0.00,,,0.01,0.000000,,2013-02-03 09:00:00,
2013-02-03 03:32:00,3.0,-3.0,-100.00,West,259,4.0,10.0,76,0.00,,,0.01,0.000000,,2013-02-03 09:32:00,
2013-02-03 03:42:00,3.0,-3.0,-100.00,West,259,4.0,10.0,76,0.00,,,0.01,0.000000,,2013-02-03 09:42:00,
2013-02-03 03:52:00,3.0,-3.0,-100.00,West,259,4.0,10.0,76,0.00,,,0.01,0.000000,,2013-02-03 09:52:00,
2013-02-03 04:00:00,3.0,-3.0,-100.00,WSW,258,4.0,9.0,76,0.00,,,0.01,0.000000,,2013-02-03 10:00:00,
2013-02-03 04:21:00,3.0,-3.0,-100.00,WSW,258,4.0,9.0,76,0.00,,,0.01,0.000000,,2013-02-03 10:21:00,
2013-02-03 04:32:00,3.0,-3.0,-100.00,WSW,258,4.0,9.0,76,0.00,,,0.01,0.000000,,2013-02-03 10:32:00,
2013-02-03 04:42:00,3.0,-3.0,-100.00,WSW,258,4.0,9.0,76,0.00,,,0.01,0.000000,,2013-02-03 10:42:00,
2013-02-03 04:52:00,3.0,-3.0,-100.00,WSW,258,4.0,9.0,76,0.00,,,0.01,0.000000,,2013-02-03 10:52:00,
2013-02-03 05:00:00,3.0,-3.0,-100.00,West,275,5.0,9.0,76,0.00,,,0.01,0.000000,,2013-02-03 11:00:00,
2013-02-03 05:32:00,3.0,-3.0,-100.00,West,275,5.0,9.0,76,0.00,,,0.01,0.000000,,2013-02-03 11:32:00,
2013-02-03 05:42:00,3.0,-3.0,-100.00,West,275,5.0,9.0,76,0.00,,,0.01,0.000000,,2013-02-03 11:42:00,
2013-02-03 05:52:00,3.0,-3.0,-100.00,West,275,5.0,9.0,76,0.00,,,0.01,0.000000,,2013-02-03 11:52:00,
2013-02-03 06:00:00,3.0,-3.0,-100.00,West,272,6.0,10.0,76,0.00,,,0.01,0.000000,,2013-02-03 12:00:00,
2013-02-03 06:32:00,3.0,-3.0,-100.00,West,272,6.0,10.0,76,0.00,,,0.01,0.000000,,2013-02-03 12:32:00,
2013-02-03 06:42:00,3.0,-3.0,-100.00,West,272,6.0,10.0,76,0.00,,,0.01,0.000000,,2013-02-03 12:42:00,
2013-02-03 06:53:00,3.0,-3.0,-100.00,West,272,6.0,10.0,76,0.00,,,0.01,0.000000,,2013-02-03 12:53:00,
2013-02-03 07:00:00,4.0,-2.0,-100.00,WNW,282,6.0,12.0,75,0.00,,,0.01,0.000000,,2013-02-03 13:00:00,
2013-02-03 07:32:00,4.0,-2.0,-100.00,WNW,282,6.0,12.0,75,0.00,,,0.01,0.000000,,2013-02-03 13:32:00,
2013-02-03 07:42:00,4.0,-2.0,-100.00,WNW,282,6.0,12.0,75,0.00,,,0.01,0.000000,,2013-02-03 13:42:00,
2013-02-03 07:52:00,4.0,-2.0,-100.00,WNW,282,6.0,12.0,75,0.00,,,0.01,0.000000,,2013-02-03 13:52:00,
2013-02-03 08:00:00,4.0,-2.0,-100.00,West,278,7.0,13.0,74,0.00,,,0.01,6.000000,,2013-02-03 14:00:00,
2013-02-03 08:32:00,4.0,-2.0,-100.00,West,278,7.0,13.0,74,0.00,,,0.01,6.000000,,2013-02-03 14:32:00,
2013-02-03 08:42:00,4.0,-2.0,-100.00,West,278,7.0,13.0,74,0.00,,,0.01,6.000000,,2013-02-03 14:42:00,
2013-02-03 08:52:00,4.0,-2.0,-100.00,West,278,7.0,13.0,74,0.00,,,0.01,6.000000,,2013-02-03 14:52:00,
2013-02-03 09:00:00,5.0,-2.0,-100.00,WNW,296,7.0,16.0,71,0.00,,,0.01,48.000000,,2013-02-03 15:00:00,
2013-02-03 09:33:00,5.0,-2.0,-100.00,WNW,296,7.0,16.0,71,0.00,,,0.01,48.000000,,2013-02-03 15:33:00,
2013-02-03 09:42:00,5.0,-2.0,-100.00,WNW,296,7.0,16.0,71,0.00,,,0.01,48.000000,,2013-02-03 15:42:00,
2013-02-03 09:52:00,5.0,-2.0,-100.00,WNW,296,7.0,16.0,71,0.00,,,0.01,48.000000,,2013-02-03 15:52:00,
2013-02-03 10:00:00,5.0,-3.0,-100.00,WNW,287,8.0,14.0,70,0.00,,,0.01,130.000000,,2013-02-03 16:00:00,
2013-02-03 10:33:00,5.0,-3.0,-100.00,WNW,287,8.0,14.0,70,0.00,,,0.01,130.000000,,2013-02-03 16:33:00,
2013-02-03 10:42:00,5.0,-3.0,-100.00,WNW,287,8.0,14.0,70,0.00,,,0.01,130.000000,,2013-02-03 16:42:00,
2013-02-03 10:52:00,5.0,-3.0,-100.00,WNW,287,8.0,14.0,70,0.00,,,0.01,130.000000,,2013-02-03 16:52:00,
2013-02-03 11:00:00,7.0,-5.0,-100.00,WNW,286,8.0,15.0,58,0.00,,,0.01,283.000000,,2013-02-03 17:00:00,
2013-02-03 11:32:00,7.0,-5.0,-100.00,WNW,286,8.0,15.0,58,0.00,,,0.01,283.000000,,2013-02-03 17:32:00,
2013-02-03 11:42:00,7.0,-5.0,-100.00,WNW,286,8.0,15.0,58,0.00,,,0.01,283.000000,,2013-02-03 17:42:00,
2013-02-03 11:52:00,7.0,-5.0,-100.00,WNW,286,8.0,15.0,58,0.00,,,0.01,283.000000,,2013-02-03 17:52:00,
2013-02-03 12:00:00,6.0,-6.0,-100.00,NW,312,6.0,13.0,57,0.00,,,0.00,313.000000,,2013-02-03 18:00:00,
2013-02-03 12:23:00,6.0,-6.0,-100.00,NW,312,6.0,13.0,57,0.00,,,0.00,313.000000,,2013-02-03 18:23:00,
2013-02-03 12:33:00,6.0,-6.0,-100.00,NW,312,6.0,13.0,57,0.00,,,0.00,313.000000,,2013-02-03 18:33:00,
2013-02-03 12:42:00,6.0,-6.0,-100.00,NW,312,6.0,13.0,57,0.00,,,0.00,313.000000,,2013-02-03 18:42:00,
2013-02-03 12:52:00,6.0,-6.0,-100.00,NW,312,6.0,13.0,57,0.00,,,0.00,313.000000,,2013-02-03 18:52:00,
2013-02-03 13:00:00,9.0,-6.0,-100.00,NW,309,8.0,13.0,50,0.00,,,0.00,471.000000,,2013-02-03 19:00:00,
2013-02-03 13:33:00,9.0,-6.0,-100.00,NW,309,8.0,13.0,50,0.00,,,0.00,471.000000,,2013-02-03 19:33:00,
2013-02-03 13:42:00,9.0,-6.0,-100.00,NW,309,8.0,13.0,50,0.00,,,0.00,471.000000,,2013-02-03 19:42:00,
2013-02-03 13:52:00,9.0,-6.0,-100.00,NW,309,8.0,13.0,50,0.00,,,0.00,471.000000,,2013-02-03 19:52:00,
2013-02-03 14:00:00,9.0,-7.0,-100.00,NW,313,8.0,14.0,47,0.00,,,0.00,383.000000,,2013-02-03 20:00:00,
2013-02-03 14:33:00,9.0,-7.0,-100.00,NW,313,8.0,14.0,47,0.00,,,0.00,383.000000,,2013-02-03 20:33:00,
2013-02-03 14:42:00,9.0,-7.0,-100.00,NW,313,8.0,14.0,47,0.00,,,0.00,383.000000,,2013-02-03 20:42:00,
2013-02-03 14:52:00,9.0,-7.0,-100.00,NW,313,8.0,14.0,47,0.00,,,0.00,383.000000,,2013-02-03 20:52:00,
2013-02-03 15:00:00,11.0,-6.0,-100.00,West,280,6.0,13.0,46,0.00,,,0.00,351.000000,,2013-02-03 21:00:00,
2013-02-03 15:33:00,11.0,-6.0,-100.00,West,280,6.0,13.0,46,0.00,,,0.00,351.000000,,2013-02-03 21:33:00,
2013-02-03 15:42:00,11.0,-6.0,-100.00,West,280,6.0,13.0,46,0.00,,,0.00,351.000000,,2013-02-03 21:42:00,
2013-02-03 15:52:00,11.0,-6.0,-100.00,West,280,6.0,13.0,46,0.00,,,0.00,351.000000,,2013-02-03 21:52:00,
2013-02-03 16:00:00,9.0,-7.0,-100.00,West,266,6.0,11.0,47,0.00,,,0.00,219.000000,,2013-02-03 22:00:00,
2013-02-03 16:32:00,9.0,-7.0,-100.00,West,266,6.0,11.0,47,0.00,,,0.00,219.000000,,2013-02-03 22:32:00,
2013-02-03 16:42:00,9.0,-7.0,-100.00,West,266,6.0,11.0,47,0.00,,,0.00,219.000000,,2013-02-03 22:42:00,
2013-02-03 16:52:00,9.0,-7.0,-100.00,West,266,6.0,11.0,47,0.00,,,0.00,219.000000,,2013-02-03 22:52:00,
2013-02-03 17:00:00,6.0,-7.0,-100.00,WNW,283,3.0,9.0,55,0.00,,,0.00,52.000000,,2013-02-03 23:00:00,
2013-02-03 17:32:00,6.0,-7.0,-100.00,WNW,283,3.0,9.0,55,0.00,,,0.00,52.000000,,2013-02-03 23:32:00,
2013-02-03 17:42:00,6.0,-7.0,-100.00,WNW,283,3.0,9.0,55,0.00,,,0.00,52.000000,,2013-02-03 23:42:00,
2013-02-03 17:52:00,6.0,-7.0,-100.00,WNW,283,3.0,9.0,55,0.00,,,0.00,52.000000,,2013-02-03 23:52:00,
2013-02-03 18:00:00,-2.0,-10.0,-100.00,South,174,0.0,7.0,67,0.00,,,0.00,2.000000,,2013-02-04 00:00:00,
2013-02-03 18:32:00,-2.0,-10.0,-100.00,South,174,0.0,7.0,67,0.00,,,0.00,2.000000,,2013-02-04 00:32:00,
2013-02-03 18:42:00,-2.0,-10.0,-100.00,South,174,0.0,7.0,67,0.00,,,0.00,2.000000,,2013-02-04 00:42:00,
2013-02-03 18:52:00,-2.0,-10.0,-100.00,South,174,0.0,7.0,67,0.00,,,0.00,2.000000,,2013-02-04 00:52:00,
2013-02-03 19:00:00,-5.0,-11.0,-100.00,WSW,246,0.0,0.0,74,0.00,,,0.00,0.000000,,2013-02-04 01:00:00,
2013-02-03 19:22:00,-5.0,-11.0,-100.00,WSW,246,0.0,0.0,74,0.00,,,0.00,0.000000,,2013-02-04 01:22:00,
2013-02-03 19:32:00,-5.0,-11.0,-100.00,WSW,246,0.0,0.0,74,0.00,,,0.00,0.000000,,2013-02-04 01:32:00,
2013-02-03 19:42:00,-5.0,-11.0,-100.00,WSW,246,0.0,0.0,74,0.00,,,0.00,0.000000,,2013-02-04 01:42:00,
2013-02-03 19:52:00,-5.0,-11.0,-100.00,WSW,246,0.0,0.0,74,0.00,,,0.00,0.000000,,2013-02-04 01:52:00,
2013-02-03 20:00:00,-10.0,-17.0,-100.00,East,95,0.0,0.0,72,0.00,,,0.00,0.000000,,2013-02-04 02:00:00,
2013-02-03 20:22:00,-10.0,-17.0,-100.00,East,95,0.0,0.0,72,0.00,,,0.00,0.000000,,2013-02-04 02:22:00,
2013-02-03 20:32:00,-10.0,-17.0,-100.00,East,95,0.0,0.0,72,0.00,,,0.00,0.000000,,2013-02-04 02:32:00,
2013-02-03 20:42:00,-10.0,-17.0,-100.00,East,95,0.0,0.0,72,0.00,,,0.00,0.000000,,2013-02-04 02:42:00,
2013-02-03 20:52:00,-10.0,-17.0,-100.00,East,95,0.0,0.0,72,0.00,,,0.00,0.000000,,2013-02-04 02:52:00,
2013-02-03 21:00:00,-11.0,-17.0,-100.00,SSE,149,0.0,0.0,72,0.00,,,0.00,0.000000,,2013-02-04 03:00:00,
2013-02-03 21:32:00,-11.0,-17.0,-100.00,SSE,149,0.0,0.0,72,0.00,,,0.00,0.000000,,2013-02-04 03:32:00,
2013-02-03 21:42:00,-11.0,-17.0,-100.00,SSE,149,0.0,0.0,72,0.00,,,0.00,0.000000,,2013-02-04 03:42:00,
2013-02-03 21:52:00,-11.0,-17.0,-100.00,SSE,149,0.0,0.0,72,0.00,,,0.00,0.000000,,2013-02-04 03:52:00,
2013-02-03 22:32:00,-14.0,-21.0,-100.00,NNE,17,0.0,0.0,68,0.00,,,0.00,0.000000,,2013-02-04 04:32:00,
2013-02-03 23:00:00,-12.0,-19.0,-100.00,East,100,0.0,0.0,70,0.00,,,0.00,0.000000,,2013-02-04 05:00:00,
2013-02-03 23:22:00,-12.0,-19.0,-100.00,East,100,0.0,0.0,70,0.00,,,0.00,0.000000,,2013-02-04 05:22:00,
2013-02-03 23:33:00,-12.0,-19.0,-100.00,East,100,0.0,0.0,70,0.00,,,0.00,0.000000,,2013-02-04 05:33:00,
2013-02-03 23:42:00,-12.0,-19.0,-100.00,East,100,0.0,0.0,70,0.00,,,0.00,0.000000,,2013-02-04 05:42:00,
2013-02-03 23:52:00,-12.0,-19.0,-100.00,East,100,0.0,0.0,70,0.00,,,0.00,0.000000,,2013-02-04 05:52:00,